Location: Ernsee
(50.8780°N, 12.0389°E)
Time: 18:46:49
(UTC+00:00)

USA 229 - Pass Details

Date: 20 January 2020
Orbit: 992 x 1220 km, 63.4° (Epoch: 06 February)

Event Time Altitude Azimuth Distance (km) Brightness Sun altitude
Exits shadow 04:04:45 37° 336° (NNW) 1,600 4.4 -27.8°
Maximum altitude 04:04:50 37° 338° (NNW) 1,601 4.4 -27.7°
Drops below altitude 10° 04:11:22 10° 45° (NE) 2,997 6.6 -26.7°
Sets 04:14:23 0° 53° (NE) 3,994 7.5 -26.2°
